Weather History for Salem, IL

Change the Weather History Date:

Friday, March 15, 2013

  Actual Average Record
Temperature  
Mean Temperature 48 °F -  
Max Temperature 67 °F 54 °F 74 °F (1977)
Min Temperature 30 °F 33 °F 16 °F (1969)
Degree Days  
Heating Degree Days 16    
Moisture  
Dew Point 40 °F    
Average Humidity 70    
Maximum Humidity 100    
Minimum Humidity 44    
Precipitation  
Precipitation 0.00 in - - ()
Sea Level Pressure  
Sea Level Pressure 29.90 in    
Wind  
Wind Speed 4 mph (South)    
Max Wind Speed 16 mph    
Max Gust Speed 24 mph    
Visibility 9 miles    
Events      
Averages and records for this station are not official NWS values.
T = Trace of Precipitation, MM = Missing Value Source: NWS Daily Summary

Daily Weather History Graph

Daily Weather History Graph

Search for Another Location

Airport:

Trip Planner

Search our weather history database for the weather conditions in past years. The results will help you decide how hot, cold, wet, or windy it might be!

Date:

Astronomy

Mar. 15, 2013 Rise Set
Actual Time 7:06 AM CDT 7:03 PM CDT
Civil Twilight 6:40 AM CDT 7:29 PM CDT
Nautical Twilight 6:09 AM CDT 8:00 PM CDT
Astronomical Twilight 5:38 AM CDT 8:31 PM CDT
Moon 8:59 AM CDT (3/15) 11:13 PM CDT (3/15)
Length of Visible Light 12h 49m
Length of Day
11h 56m
Waxing Crescent, 15% of the Moon is Illuminated
Mar 15
Waxing Crescent
Mar 19
First Quarter
Mar 27
Full
Apr 2
Last Quarter
Apr 10
New

Hourly Weather History & Observations

Time (CDT) Temp. Windchill Dew Point Humidity Pressure Visibility Wind Dir Wind Speed Gust Speed Precip Events Conditions
12:15 AM 35.8 °F 31.9 °F 31.1 °F 83% 30.13 in 10.0 mi SE 4.6 mph - N/A   Clear
12:35 AM 35.6 °F 31.7 °F 31.1 °F 84% 30.12 in 10.0 mi SE 4.6 mph - N/A   Clear
12:55 AM 35.2 °F 32.4 °F 31.1 °F 85% 30.12 in 10.0 mi ESE 3.5 mph - N/A   Clear
1:15 AM 35.1 °F 32.2 °F 31.1 °F 85% 30.11 in 10.0 mi SE 3.5 mph - N/A   Clear
1:35 AM 34.7 °F 31.8 °F 31.1 °F 87% 30.10 in 10.0 mi SE 3.5 mph - N/A   Clear
1:55 AM 34.3 °F 30.2 °F 31.1 °F 88% 30.09 in 10.0 mi ESE 4.6 mph - N/A   Clear
2:15 AM 34.2 °F 31.2 °F 31.3 °F 89% 30.09 in 10.0 mi SE 3.5 mph - N/A   Clear
2:35 AM 34.0 °F 31.0 °F 31.1 °F 89% 30.08 in 10.0 mi SE 3.5 mph - N/A   Clear
2:55 AM 33.8 °F 30.8 °F 31.1 °F 90% 30.07 in 10.0 mi SE 3.5 mph - N/A   Clear
3:15 AM 33.4 °F 30.4 °F 31.1 °F 91% 30.06 in 10.0 mi SE 3.5 mph - N/A   Clear
3:35 AM 33.4 °F 30.4 °F 31.1 °F 91% 30.05 in 10.0 mi SSE 3.5 mph - N/A   Clear
3:55 AM 33.1 °F 30.0 °F 31.1 °F 92% 30.03 in 10.0 mi SSE 3.5 mph - N/A   Clear
4:15 AM 32.9 °F 29.8 °F 31.1 °F 93% 30.02 in 10.0 mi SSE 3.5 mph - N/A   Clear
4:35 AM 32.7 °F 29.6 °F 30.9 °F 93% 30.01 in 10.0 mi SSE 3.5 mph - N/A   Clear
4:55 AM 33.8 °F - 30.2 °F 87% 30.01 in 10.0 mi Calm Calm - N/A   Clear
5:15 AM 32.0 °F - 31.1 °F 96% 30.01 in 7.0 mi Calm Calm - N/A   Clear
5:35 AM 31.8 °F - 30.7 °F 96% 30.01 in 7.0 mi Calm Calm - N/A   Clear
5:55 AM 31.6 °F - 30.9 °F 97% 30.01 in 7.0 mi Calm Calm - N/A   Clear
6:15 AM 31.3 °F - 30.9 °F 99% 30.01 in 5.0 mi Calm Calm - N/A   Clear
6:35 AM 31.1 °F - 30.7 °F 99% 30.00 in 5.0 mi Calm Calm - N/A   Clear
6:55 AM 31.1 °F - 31.1 °F 100% 30.00 in 4.0 mi Calm Calm - N/A   Clear
7:15 AM 30.9 °F - 30.9 °F 100% 30.01 in 5.0 mi Calm Calm - N/A   Clear
7:35 AM 31.1 °F - 31.1 °F 100% 30.00 in 3.0 mi Calm Calm - N/A   Clear
7:55 AM 32.0 °F - 32.0 °F 100% 30.00 in 4.0 mi Calm Calm - N/A   Clear
8:15 AM 32.0 °F - 32.0 °F 100% 30.00 in 4.0 mi Calm Calm - N/A   Clear
8:35 AM 34.2 °F - 33.3 °F 97% 30.00 in 5.0 mi Calm Calm - N/A   Clear
8:55 AM 36.9 °F - 33.3 °F 87% 29.99 in 7.0 mi Calm Calm - N/A   Clear
9:15 AM 39.2 °F - 35.6 °F 87% 29.99 in 10.0 mi Calm Calm - N/A   Clear
9:35 AM 42.3 °F - 36.3 °F 79% 29.99 in 10.0 mi Calm Calm - N/A   Clear
9:55 AM 44.8 °F - 36.9 °F 74% 29.99 in 10.0 mi Calm Calm - N/A   Clear
11:15 AM 53.2 °F - 41.4 °F 64% 29.98 in 10.0 mi West 3.5 mph - N/A   Clear
11:35 AM 55.6 °F - 42.6 °F 62% 29.97 in 10.0 mi Calm Calm - N/A   Clear
11:55 AM 57.6 °F - 43.2 °F 59% 29.96 in 10.0 mi Calm Calm - N/A   Clear
12:15 PM 59.9 °F - 43.2 °F 54% 29.96 in 10.0 mi Calm Calm - N/A   Clear
12:35 PM 60.8 °F - 43.5 °F 53% 29.95 in 10.0 mi West 3.5 mph - N/A   Clear
12:55 PM 62.8 °F - 44.1 °F 50% 29.94 in 10.0 mi SW 4.6 mph - N/A   Clear
1:15 PM 63.5 °F - 43.9 °F 49% 29.93 in 10.0 mi Calm Calm - N/A   Clear
1:35 PM 64.0 °F - 43.9 °F 48% 29.92 in 10.0 mi Calm Calm - N/A   Clear
1:55 PM 63.9 °F - 44.1 °F 49% 29.90 in 10.0 mi Calm Calm - N/A   Clear
2:15 PM 65.3 °F - 44.6 °F 47% 29.89 in 10.0 mi WSW 3.5 mph - N/A   Clear
2:35 PM 65.3 °F - 44.1 °F 46% 29.87 in 10.0 mi Calm Calm - N/A   Clear
2:55 PM 65.7 °F - 45.0 °F 47% 29.86 in 10.0 mi Calm Calm - N/A   Clear
3:15 PM 66.6 °F - 45.1 °F 46% 29.85 in 10.0 mi Calm Calm - N/A   Clear
3:35 PM 67.1 °F - 44.6 °F 44% 29.84 in 10.0 mi SSW 4.6 mph - N/A   Clear
3:55 PM 67.1 °F - 44.8 °F 45% 29.83 in 10.0 mi South 4.6 mph - N/A   Clear
4:15 PM 67.5 °F - 45.5 °F 45% 29.83 in 10.0 mi South 5.8 mph - N/A   Clear
4:35 PM 67.6 °F - 45.7 °F 45% 29.82 in 10.0 mi SSE 3.5 mph - N/A   Clear
4:55 PM 66.6 °F - 46.2 °F 48% 29.82 in 10.0 mi South 9.2 mph - N/A   Scattered Clouds
5:15 PM 65.8 °F - 46.2 °F 49% 29.82 in 10.0 mi South 6.9 mph - N/A   Mostly Cloudy
5:35 PM 66.2 °F - 46.4 °F 49% 29.80 in 10.0 mi South 8.1 mph - N/A   Mostly Cloudy
5:55 PM 65.5 °F - 45.3 °F 48% 29.78 in 10.0 mi SSE 9.2 mph - N/A   Overcast
6:15 PM 65.5 °F - 45.0 °F 47% 29.77 in 10.0 mi SSE 6.9 mph - N/A   Overcast
6:35 PM 65.3 °F - 45.1 °F 48% 29.76 in 10.0 mi SSE 6.9 mph - N/A   Overcast
6:55 PM 66.2 °F - 44.6 °F 46% 29.75 in 10.0 mi SSE 6.9 mph - N/A   Overcast
7:15 PM 66.0 °F - 45.0 °F 47% 29.73 in 10.0 mi SSE 15.0 mph 24.2 mph N/A   Mostly Cloudy
7:35 PM 66.2 °F - 46.4 °F 49% 29.73 in 10.0 mi South 16.1 mph - N/A   Mostly Cloudy
7:55 PM 65.5 °F - 47.8 °F 53% 29.71 in 10.0 mi SSE 11.5 mph 17.3 mph N/A   Mostly Cloudy
8:15 PM 65.3 °F - 49.1 °F 56% 29.71 in 10.0 mi South 12.7 mph 20.7 mph N/A   Scattered Clouds
8:35 PM 65.3 °F - 49.5 °F 57% 29.71 in 10.0 mi South 10.4 mph 18.4 mph N/A   Scattered Clouds
8:55 PM 65.5 °F - 50.0 °F 57% 29.70 in 10.0 mi South 15.0 mph - N/A   Scattered Clouds
9:15 PM 65.5 °F - 50.7 °F 59% 29.70 in 10.0 mi South 13.8 mph - N/A   Scattered Clouds
9:35 PM 65.5 °F - 51.1 °F 60% 29.70 in 10.0 mi South 15.0 mph 20.7 mph N/A   Scattered Clouds
9:55 PM 64.8 °F - 51.4 °F 62% 29.70 in 10.0 mi SSW 15.0 mph 19.6 mph N/A   Scattered Clouds
10:15 PM 64.2 °F - 51.4 °F 63% 29.70 in 10.0 mi SSW 11.5 mph 20.7 mph N/A   Scattered Clouds
10:35 PM 63.7 °F - 51.8 °F 65% 29.69 in 10.0 mi SSW 15.0 mph 21.9 mph N/A   Scattered Clouds
10:55 PM 63.5 °F - 52.2 °F 67% 29.69 in 10.0 mi SSW 16.1 mph 23.0 mph N/A   Scattered Clouds
11:15 PM 63.1 °F - 52.2 °F 67% 29.69 in 10.0 mi SSW 15.0 mph 19.6 mph N/A   Clear
11:35 PM 62.6 °F - 52.2 °F 69% 29.68 in 10.0 mi SSW 12.7 mph - N/A   Clear
11:55 PM 62.1 °F - 52.0 °F 70% 29.67 in 10.0 mi SSW 13.8 mph - N/A   Clear